Location: Eastlake (historical)
(39.0077°N, 122.6678°W)
Time: 04:56:19
(UTC+00:00)

SJ 16-02 - Pass Details

Date: 25 November 2020
Orbit: 606 x 616 km, 75.0° (Epoch: 27 January)

Event Time Altitude Azimuth Distance (km) Brightness Sun altitude
Rises 13:20:08 0° 196° (SSW) 2,860 4.7 -20.1°
Reaches altitude 10° 13:22:21 10° 196° (SSW) 1,961 3.9 -19.7°
Maximum altitude 13:26:44 89° 277° (W) 619 1.2 -18.8°
Drops below altitude 10° 13:31:10 10° 17° (NNE) 1,981 4.0 -18.0°
Sets 13:33:26 0° 18° (NNE) 2,892 4.9 -17.6°
